Regional Weather Roundup
Issued by NWS Midland/Odessa, TX

Skip options and go directly to product.
Home | Oldest Version | Previous Version | Current Version | All | Text Only | Save Text | Print | Product List | Glossary Off

Skip product version selection by date and time.   

488
ASUS44 KMAF 200702
RWRMAF
MIDLAND AREA WEATHER ROUNDUP
NATIONAL WEATHER SERVICE MIDLAND TX
200 AM CDT WED AUG 20 2014

...IN SOUTHWEST TEXAS AND SOUTHEAST NEW MEXICO...

CITY           SKY/WX    TMP DP  RH WIND       PRES   REMARKS
ALPINE         MOCLDY    69  62  77 S5        30.07F
ANDREWS        FAIR      76  64  64 S12G17    29.92F
ARTESIA        PTCLDY    75  55  50 SW9       29.89S
BIG SPRING     CLEAR     79  64  60 SE9       29.93F
CARLSBAD       PTCLDY    78  59  51 CALM      29.89S
DRYDEN           N/A     83  65  54 E5        29.88S
FORT STOCKTON  PTCLDY    76  65  68 S12       29.92S
GUAD PASS      MOCLDY    68  58  70 SW15      30.07S
HOBBS          CLEAR     75  63  64 S14       29.95S
MARFA          CLOUDY    68  63  83 CALM      30.07F
MIDLAND AIRPK  CLEAR     79  64  59 S9        29.92F
MIDLAND INTL   CLEAR     78  64  61 S14       29.91F
ODESSA         CLEAR     78  64  61 S13       29.92F
PECOS          PTCLDY    77  63  61 SW3       29.89R
PRESIDIO       FAIR      80  63  55 CALM      29.92S
SEMINOLE       CLEAR     76  62  60 S9        29.94S
SNYDER         CLEAR     75  64  70 SE7       29.92F
WINK           CLEAR     80  65  59 SE13      29.88S
$$
...OTHER STATIONS IN TEXAS...

CITY           SKY/WX    TMP DP  RH WIND       PRES   REMARKS
ABILENE        CLEAR     78  66  66 S13       29.90F
AMARILLO       CLEAR     73  64  73 S14       29.93F
AUSTIN         MOCLDY    80  73  79 S10       29.93S
BROWNSVILLE    PTCLDY    79  76  90 SE5       29.90F
CORPUS CHRISTI PTCLDY    82  77  84 SE9       29.90S
DALLAS FTW     CLOUDY    80  70  71 S12       29.89S
DEL RIO        PTCLDY    85  65  51 E8        29.84R
EL PASO        PTCLDY    72  59  63 SW17      29.95F
HOUSTON INT    MOCLDY    76  75  97 CALM      29.94S
LUBBOCK        PTCLDY    77  63  61 S17       29.93S
SAN ANGELO     CLEAR     73  69  87 E3        29.90S
SAN ANTONIO    MOCLDY    80  72  76 SE15G22   29.93S
WACO           MOCLDY    80  71  74 S14       29.90S
WICHITA FALLS  NOT AVBL
$$
...OTHER LOCATIONS IN NEW MEXICO...

CITY           SKY/WX    TMP DP  RH WIND       PRES   REMARKS
ALAMAGORDO     MOCLDY    73  57  56 S13       29.96F
ALBUQUERQUE    MOCLDY    70  52  52 SW5       30.05S
CANNON AFB     NOT AVBL
CLOVIS           N/A     73  59  60 S13       29.98S
HOLLOMAN AFB   MOCLDY    75  57  53 SE12      29.94F
ROSWELL        CLEAR     74  60  61 S5        29.88S
RUIDOSO        MOCLDY    59  50  72 SW10      30.14F
SANTA FE       MOCLDY    66  48  52 SW6       30.08S
TRUTH OR CONSE MOCLDY    73  55  53 NW9       29.99S
TUCUMCARI      PTCLDY    78  57  48 S18       29.90R
$$

USA.gov is the U.S. government's official web portal to all federal, state and local government web resources and services.